User: anonymous   Login
Location: Roanoke
(37.2710°N, 79.9420°W)
Time: 01:22:53
(UTC-05:00)
Language:

Cosmos 1441 Rocket - Orbit

View from above orbital plane
View from above orbital plane
View from above satellite
View from above satellite

Ground track
Ground track

The orbit data is extracted from the following two-line orbital elements,

1 13819U 83010B   15024.75958084  .00002142  00000-0  12088-3 0   534
2 13819 081.1155 098.8326 0034699 012.2430 347.9630 15.12221452741418
Epoch (UTC): 24 January 2015 18:13:47
Eccentricity: 0.0034699
inclination: 81.1155°
perigee height: 505 km
apogee height: 553 km
right ascension of ascending node: 98.8326°
argument of perigee: 12.2430°
revolutions per day: 15.12221452
mean anomaly at epoch: 347.9630°
orbit number at epoch: 74141

The dashed part of the orbit path shows where the satellite is in the earth's shadow,  

DLR